Weather History for KO22 - August, 2013

Change the Weather History Date:

Thursday, August 22, 2013

  Actual Average (KMOD) Record (KMOD)
Temperature  
Mean Temperature 74 °F -  
Max Temperature 91 °F 93 °F 101 °F (1982)
Min Temperature 57 °F 62 °F 51 °F (1947)
Degree Days  
Heating Degree Days 0 0  
Month to date heating degree days 0  
Since 1 June heating degree days 3  
Since 1 July heating degree days 0  
Cooling Degree Days 9 12  
Month to date cooling degree days 294  
Year to date cooling degree days 1229  
Since 1 June cooling degree days 1030  
Growing Degree Days 24 (Base 50)    
Moisture  
Dew Point 40 °F    
Average Humidity 35    
Maximum Humidity 59    
Minimum Humidity 12    
Precipitation  
Precipitation 0.00 in 0.00 in 0.13 in (1976)
Month to date precipitation 0.01  
Year to date precipitation 8.76  
Snow  
Snow 0.00 in - - ()
Month to date snowfall  
Since 1 June snowfall  
Since 1 July snowfall  
Snow Depth -    
Sea Level Pressure  
Sea Level Pressure 29.93 in    
Wind  
Wind Speed 3 mph (SW)    
Max Wind Speed 13 mph    
Max Gust Speed 21 mph    
Visibility 9 miles    
Events      
T = Trace of Precipitation, MM = Missing Value Source: NWS Daily Summary

Daily Weather History Graph

Daily Weather History Graph

Search for Another Location

Airport or City:

Trip Planner

Search our weather history database for the weather conditions in past years. The results will help you decide how hot, cold, wet, or windy it might be!

Date:

Astronomy

Aug. 22, 2013 Rise Set
Actual Time 6:23 AM PDT 7:45 PM PDT
Civil Twilight 5:55 AM PDT 8:12 PM PDT
Nautical Twilight 5:22 AM PDT 8:45 PM PDT
Astronomical Twilight 4:47 AM PDT 9:19 PM PDT
Moon 8:35 PM PDT (8/22) 8:14 AM PDT (8/22)
Length of Visible Light 14h 16m
Length of Day
13h 21m
Waning Gibbous, 96% of the Moon is Illuminated
Aug 22
Waning Gibbous
Aug 28
Last Quarter
Sep 5
New
Sep 12
First Quarter
Sep 19
Full

Hourly Weather History & Observations

Time (PDT) Temp. Dew Point Humidity Pressure Visibility Wind Dir Wind Speed Gust Speed Precip Events Conditions
12:15 AM 64.4 °F 41.0 °F 42% 29.93 in 10.0 mi NE 4.6 mph - N/A   Clear
12:35 AM 62.6 °F 41.0 °F 45% 29.93 in 10.0 mi Calm Calm - N/A   Clear
12:55 AM 62.6 °F 41.0 °F 45% 29.92 in 10.0 mi Calm Calm - N/A   Clear
1:15 AM 60.8 °F 41.0 °F 48% 29.92 in 10.0 mi Calm Calm - N/A   Clear
1:35 AM 60.8 °F 41.0 °F 48% 29.92 in 10.0 mi Calm Calm - N/A   Clear
1:55 AM 60.8 °F 41.0 °F 48% 29.92 in 10.0 mi Calm Calm - N/A   Clear
2:15 AM 59.0 °F 41.0 °F 51% 29.92 in 10.0 mi Calm Calm - N/A   Clear
2:35 AM 60.8 °F 41.0 °F 48% 29.92 in 10.0 mi Calm Calm - N/A   Scattered Clouds
2:55 AM 59.0 °F 41.0 °F 51% 29.92 in 10.0 mi Calm Calm - N/A   Partly Cloudy
3:15 AM 57.2 °F 39.2 °F 51% 29.92 in 10.0 mi Calm Calm - N/A   Clear
3:35 AM 59.0 °F 39.2 °F 48% 29.93 in 10.0 mi Calm Calm - N/A   Clear
3:55 AM 57.2 °F 39.2 °F 51% 29.93 in 10.0 mi Calm Calm - N/A   Clear
4:15 AM 57.2 °F 39.2 °F 51% 29.93 in 10.0 mi Calm Calm - N/A   Clear
4:35 AM 57.2 °F 39.2 °F 51% 29.93 in 10.0 mi Calm Calm - N/A   Clear
4:55 AM 57.2 °F 39.2 °F 51% 29.93 in 10.0 mi Calm Calm - N/A   Clear
5:15 AM 57.2 °F 39.2 °F 51% 29.93 in 10.0 mi Calm Calm - N/A   Scattered Clouds
5:35 AM 57.2 °F 39.2 °F 51% 29.92 in 10.0 mi Calm Calm - N/A   Overcast
5:55 AM 57.2 °F 39.2 °F 51% 29.93 in 10.0 mi Calm Calm - N/A   Overcast
6:15 AM 57.2 °F 39.2 °F 51% 29.93 in 9.0 mi Calm Calm - N/A   Scattered Clouds
6:35 AM 59.0 °F 39.2 °F 48% 29.93 in 5.0 mi Calm Calm - N/A   Clear
6:55 AM 59.0 °F 39.2 °F 48% 29.94 in 5.0 mi Calm Calm - N/A   Clear
7:15 AM 60.8 °F 41.0 °F 48% 29.94 in 3.0 mi Calm Calm - N/A   Clear
7:35 AM 64.4 °F 42.8 °F 45% 29.95 in 2.5 mi Calm Calm - N/A   Clear
7:55 AM 68.0 °F 44.6 °F 43% 29.95 in 2.0 mi Calm Calm - N/A   Clear
8:15 AM 71.6 °F 44.6 °F 38% 29.95 in 2.0 mi Calm Calm - N/A   Clear
8:35 AM 75.2 °F 39.2 °F 27% 29.96 in 1.8 mi Calm Calm - N/A   Clear
8:55 AM 77.0 °F 39.2 °F 26% 29.96 in 1.8 mi Calm Calm - N/A   Clear
9:15 AM 78.8 °F 39.2 °F 24% 29.96 in 1.2 mi South 4.6 mph - N/A   Mostly Cloudy
9:35 AM 80.6 °F 39.2 °F 23% 29.96 in 3.0 mi South 5.8 mph - N/A   Partly Cloudy
9:55 AM 82.4 °F 37.4 °F 20% 29.97 in 5.0 mi South 5.8 mph - N/A   Clear
10:15 AM 84.2 °F 37.4 °F 19% 29.96 in 9.0 mi South 4.6 mph - N/A   Clear
10:35 AM 84.2 °F 39.2 °F 20% 29.97 in 5.0 mi South 3.5 mph - N/A   Clear
10:55 AM 84.2 °F 37.4 °F 19% 29.97 in 7.0 mi WSW 8.1 mph - N/A   Clear
11:15 AM 86.0 °F 39.2 °F 19% 29.96 in 9.0 mi SSW 3.5 mph - N/A   Clear
11:35 AM 86.0 °F 39.2 °F 19% 29.96 in 7.0 mi South 3.5 mph - N/A   Clear
11:55 AM 86.0 °F 37.4 °F 18% 29.96 in 8.0 mi South 5.8 mph - N/A   Clear
12:15 PM 87.8 °F 37.4 °F 17% 29.96 in 9.0 mi West 9.2 mph - N/A   Clear
12:35 PM 89.6 °F 37.4 °F 16% 29.95 in 9.0 mi SSW 9.2 mph - N/A   Clear
12:55 PM 87.8 °F 37.4 °F 17% 29.95 in 10.0 mi South 5.8 mph - N/A   Clear
1:15 PM 89.6 °F 37.4 °F 16% 29.94 in 10.0 mi South 9.2 mph - N/A   Clear
1:35 PM 91.4 °F 37.4 °F 15% 29.94 in 10.0 mi South 6.9 mph - N/A   Clear
1:55 PM 91.4 °F 33.8 °F 13% 29.94 in 10.0 mi South 9.2 mph 16.1 mph N/A   Clear
2:15 PM 91.4 °F 32.0 °F 12% 29.93 in 10.0 mi SW 9.2 mph 19.6 mph N/A   Clear
2:35 PM 91.4 °F 32.0 °F 12% 29.93 in 10.0 mi South 6.9 mph 18.4 mph N/A   Clear
2:55 PM 91.4 °F 37.4 °F 15% 29.92 in 10.0 mi SW 10.4 mph 17.3 mph N/A   Clear
3:15 PM 89.6 °F 37.4 °F 16% 29.91 in 10.0 mi SSW 8.1 mph 16.1 mph N/A   Clear
3:35 PM 91.4 °F 35.6 °F 14% 29.91 in 10.0 mi SSW 8.1 mph 16.1 mph N/A   Clear
3:55 PM 91.4 °F 32.0 °F 12% 29.90 in 10.0 mi South 10.4 mph 20.7 mph N/A   Clear
4:15 PM 91.4 °F 32.0 °F 12% 29.90 in 10.0 mi SW 12.7 mph 20.7 mph N/A   Clear
4:35 PM 89.6 °F 35.6 °F 15% 29.90 in 10.0 mi SW 10.4 mph - N/A   Clear
4:55 PM 87.8 °F 41.0 °F 19% 29.90 in 10.0 mi WSW 10.4 mph 16.1 mph N/A   Clear
5:15 PM 86.0 °F 41.0 °F 20% 29.90 in 10.0 mi WSW 10.4 mph 16.1 mph N/A   Clear
5:35 PM 84.2 °F 41.0 °F 22% 29.89 in 10.0 mi WSW 10.4 mph - N/A   Clear
5:55 PM 84.2 °F 42.8 °F 23% 29.89 in 10.0 mi WSW 5.8 mph - N/A   Clear
6:15 PM 84.2 °F 44.6 °F 25% 29.89 in 10.0 mi West 8.1 mph - N/A   Clear
6:35 PM 82.4 °F 44.6 °F 26% 29.89 in 10.0 mi West 6.9 mph - N/A   Clear
6:55 PM 80.6 °F 44.6 °F 28% 29.90 in 10.0 mi WNW 4.6 mph - N/A   Clear
7:15 PM 77.0 °F 44.6 °F 32% 29.90 in 10.0 mi NW 5.8 mph - N/A   Clear
7:35 PM 75.2 °F 44.6 °F 34% 29.91 in 10.0 mi WNW 5.8 mph - N/A   Clear
7:55 PM 73.4 °F 44.6 °F 36% 29.91 in 10.0 mi NW 3.5 mph - N/A   Clear
8:15 PM 71.6 °F 44.6 °F 38% 29.92 in 10.0 mi Calm Calm - N/A   Clear
8:35 PM 68.0 °F 44.6 °F 43% 29.92 in 10.0 mi Calm Calm - N/A   Clear
8:55 PM 66.2 °F 46.4 °F 49% 29.92 in 10.0 mi Calm Calm - N/A   Clear
9:15 PM 64.4 °F 44.6 °F 49% 29.92 in 10.0 mi Calm Calm - N/A   Clear
9:35 PM 64.4 °F 44.6 °F 49% 29.93 in 10.0 mi Calm Calm - N/A   Clear
9:55 PM 64.4 °F 44.6 °F 49% 29.93 in 10.0 mi Calm Calm - N/A   Clear
10:15 PM 62.6 °F 44.6 °F 52% 29.93 in 10.0 mi NE 3.5 mph - N/A   Clear
10:35 PM 62.6 °F 44.6 °F 52% 29.93 in 10.0 mi NE 3.5 mph - N/A   Clear
10:55 PM 62.6 °F 44.6 °F 52% 29.93 in 10.0 mi Calm Calm - N/A   Clear
11:15 PM 60.8 °F 44.6 °F 55% 29.93 in 10.0 mi Calm Calm - N/A   Clear
11:35 PM 59.0 °F 44.6 °F 59% 29.92 in 10.0 mi Calm Calm - N/A   Clear
11:55 PM 59.0 °F 44.6 °F 59% 29.93 in 10.0 mi Calm Calm - N/A   Clear